[[{"header":{"parameterUnit":"m.s-1","parameterCategory":1,"la1":30.2991,"la2":30.254,"lo1":-89.0895,"lo2":-89.0444,"dy":0.0017,"dx":0.0017,"nx":28,"ny":28,"refTime":"2023-08-13T03:00:00:Z","depth":0,"parameterNumber":2,"parameterNumberName":"U-component_of_WINDS"},"data":[0,0,0,0,0,0,0,0,0,0,0,0,0,0,0,0,0,0,0,0,0,0,0,0,0,0,0,0,0,0,0,0,0,0,0,0,0,0,0,0,0,0,0,0,0,0,0,0,0,0,0,0,0,0,0,0,0,0,0.7424,0.7425,0,0.7551,0.7552,0.7553,0.7599,0.7599,0.7598,0.7598,0.7729,0.7733,0.7737,0,0,0,0,0,0,0,0,0,0,0,0,0,0.722,0.7223,0.7423,0.7425,0.7427,0.755,0.7552,0.7554,0.7599,0.7599,0.7598,0.7598,0.7728,0.7733,0.7737,0,0,0,0,0,0,0,0,0,0,0,0,0,0.7324,0.7225,0.7423,0.7464,0.7469,0.755,0.7552,0.7554,0.7599,0.7599,0.7598,0.7597,0.7726,0.7732,0.7738,0.7788,0,0,0.7756,0.7758,0,0,0,0,0,0,0,0,0.7318,0.7331,0.7457,0.7462,0.7467,0.7558,0.7529,0.7633,0.76,0.755,0.7598,0.7597,0.7673,0.7683,0.7709,0.7794,0.78,0.7756,0.776,0.7763,0.7764,0,0,0,0,0,0,0,0.7311,0.7326,0.7474,0.7458,0.7465,0.7476,0.749,0.7548,0.7614,0.7554,0.7558,0.7572,0.7676,0.7703,0.7712,0.7801,0.7756,0.7762,0.7765,0.7767,0.7932,0.7933,0,0,0,0,0,0,0.7296,0.732,0.747,0.7478,0.7389,0.748,0.7496,0.753,0.7613,0.7625,0.7573,0.7574,0.7693,0.7705,0.7717,0.778,0.7763,0.7768,0.7771,0.7931,0.7932,0.7933,0,0,0,0,0,0,0.7292,0.7309,0.7465,0.74,0.742,0.7485,0.7522,0.7533,0.756,0.7627,0.7639,0.7588,0.7693,0.7709,0.7769,0.7785,0.7771,0.7776,0.793,0.7932,0.7933,0.7906,0,0,0,0,0,0,0.7286,0.7307,0.7327,0.74,0.7424,0.7515,0.7523,0.7536,0.757,0.7572,0.7645,0.7656,0.7694,0.776,0.7775,0.7793,0.7781,0.7929,0.7931,0.7932,0.7906,0.7906,0.7906,0,0,0,0,0,0.7278,0.7315,0.7328,0.7346,0.745,0.7516,0.7529,0.7571,0.7571,0.7591,0.7634,0.7654,0.7781,0.7766,0.7783,0.7803,0.7929,0.7931,0.7932,0.7906,0.7906,0.7906,0,0,0,0,0,0,0.7243,0.7325,0.7341,0.7402,0.7451,0.7523,0.755,0.7571,0.7622,0.7622,0.7672,0.7688,0.7745,0.778,0.7762,0.7854,0.7856,0.7861,0.783,0.7831,0.7831,0.7821,0.7785,0,0,0,0,0,0.7243,0.729,0.7359,0.7406,0.743,0.7486,0.7516,0.7544,0.7597,0.7619,0.7666,0.7718,0.7769,0.7802,0.7853,0.7911,0.7927,0.7933,0.7933,0.7933,0.7937,0.7969,0.7972,0.794,0.794,0.794,0,0,0.7242,0.7293,0.7319,0.74,0.7442,0.7489,0.7503,0.7553,0.7588,0.7627,0.7686,0.7723,0.7783,0.7842,0.7871,0.7874,0.7949,0.7935,0.7935,0.7939,0.7971,0.7974,0.7977,0.7941,0.7941,0.7941,0,0,0.7265,0.7308,0.7352,0.7393,0.7455,0.7492,0.7502,0.7571,0.7596,0.7657,0.7686,0.7729,0.7816,0.7858,0.789,0.7926,0.7947,0.7942,0.7944,0.7974,0.7977,0.7979,0.7992,0.7995,0.7945,0.7945,0.7945,0,0.7256,0.7328,0.7371,0.7419,0.7454,0.7489,0.7534,0.7571,0.7647,0.767,0.7672,0.7781,0.7825,0.7893,0.7902,0.7927,0.794,0.7934,0.7973,0.7976,0.7979,0.7991,0.7996,0.7944,0.7944,0.7945,0.7945,0,0.7314,0.7363,0.7391,0.7463,0.75,0.7546,0.7596,0.7628,0.7652,0.7688,0.7749,0.7802,0.7864,0.7882,0.7906,0.7954,0.7953,0.7963,0.7966,0.798,0.7992,0.7998,0.7943,0.7943,0.7944,0.7944,0,0,0.7319,0.7413,0.7422,0.7455,0.7526,0.7565,0.7611,0.7671,0.7698,0.7748,0.7789,0.7861,0.787,0.7907,0.7936,0.7963,0.7987,0.797,0.7972,0.797,0.8041,0.8033,0.8038,0.8,0.8001,0.8002,0.8036,0,0.7351,0.7436,0.7476,0.7543,0.7589,0.7623,0.7663,0.7711,0.7745,0.7789,0.7827,0.7877,0.7886,0.7908,0.7936,0.7978,0.8002,0.7976,0.8038,0.804,0.8022,0.8044,0.8037,0.8066,0.8041,0.8042,0.8042,0,0.74,0.7449,0.7521,0.7585,0.7606,0.7642,0.7699,0.774,0.7794,0.7817,0.7857,0.7885,0.7935,0.7933,0.8002,0.7984,0.8011,0.8035,0.8037,0.8045,0.8042,0.8052,0.8076,0.808,0.8051,0.805,0.8049,0,0.7395,0.748,0.7534,0.7561,0.7637,0.7661,0.7694,0.7748,0.778,0.783,0.7852,0.7907,0.7937,0.7978,0.802,0.8015,0.8085,0.8087,0.8105,0.8104,0.8119,0.8117,0.8147,0.8136,0.8136,0.8136,0.8136,0,0.7426,0.7469,0.7533,0.7566,0.7614,0.7658,0.7705,0.774,0.7787,0.7827,0.786,0.7897,0.795,0.7993,0.8026,0.8077,0.8091,0.8111,0.8119,0.8108,0.8105,0.8127,0.8126,0.8137,0.8137,0.8137,0.8137,0,0.743,0.7475,0.7535,0.7602,0.762,0.7652,0.7709,0.7742,0.7777,0.7828,0.7842,0.7898,0.795,0.7996,0.8065,0.8087,0.814,0.815,0.8122,0.8126,0.8142,0.8139,0.8186,0.8195,0.8178,0.8178,0.8178,0,0.7447,0.748,0.755,0.7579,0.7611,0.7657,0.7691,0.7735,0.7769,0.7832,0.7857,0.7912,0.7958,0.804,0.8087,0.814,0.8151,0.8164,0.816,0.8147,0.8151,0.8148,0.8152,0.8164,0.8164,0.8164,0.8164,0,0.7471,0.7491,0.7538,0.7592,0.7631,0.7676,0.7722,0.7743,0.7797,0.7832,0.7886,0.7921,0.7992,0.8045,0.8103,0.8137,0.8159,0.8165,0.8172,0.8161,0.8143,0.8152,0.8122,0.8164,0.8164,0.8164,0.8164,0.8164,0.7482,0.7513,0.7566,0.7617,0.7656,0.7697,0.7731,0.777,0.7816,0.7876,0.79,0.7954,0.8007,0.8086,0.812,0.8163,0.8166,0.8177,0.8179,0.8181,0.8179,0.8135,0.8174,0.8174,0.8174,0.8174,0.8174,0,0.7508,0.7544,0.759,0.7653,0.7692,0.7709,0.776,0.7792,0.7839,0.7886,0.793,0.7991,0.8043,0.8093,0.8147,0.8172,0.8183,0.8184,0.8183,0.819,0.8173,0.8161,0.8174,0.8174,0.8174,0.8174,0.8174,0.8174,0.7526,0.7579,0.7605,0.7677,0.7712,0.7766,0.7793,0.7832,0.7869,0.7935,0.7978,0.801,0.8058,0.8116,0.8164,0.8177,0.8195,0.8194,0.821,0.8192,0.8192,0.8191,0.818,0.8197,0.8197,0.8224,0.8224,0.8224]},{"header":{"parameterUnit":"m.s-1","parameterCategory":1,"la1":30.2991,"la2":30.254,"lo1":-89.0895,"lo2":-89.0444,"dy":0.0017,"dx":0.0017,"nx":28,"ny":28,"refTime":"2023-08-13T03:00:00:Z","depth":0,"parameterNumber":3,"parameterNumberName":"V-component_of_WINDS"},"data":[0,0,0,0,0,0,0,0,0,0,0,0,0,0,0,0,0,0,0,0,0,0,0,0,0,0,0,0,0,0,0,0,0,0,0,0,0,0,0,0,0,0,0,0,0,0,0,0,0,0,0,0,0,0,0,0,0,0,4.6509,4.6508,0,4.646,4.646,4.6459,4.6446,4.6446,4.6446,4.6447,4.639,4.6388,4.6386,0,0,0,0,0,0,0,0,0,0,0,0,0,4.6584,4.6582,4.6509,4.6508,4.6508,4.646,4.646,4.6459,4.6446,4.6446,4.6447,4.6447,4.639,4.6388,4.6386,0,0,0,0,0,0,0,0,0,0,0,0,0,4.6544,4.6582,4.6509,4.6496,4.6494,4.6461,4.646,4.6459,4.6446,4.6446,4.6447,4.6447,4.6391,4.6388,4.6386,4.636,0,0,4.6377,4.6376,0,0,0,0,0,0,0,0,4.6547,4.6542,4.6498,4.6496,4.6494,4.646,4.6465,4.6425,4.6446,4.6464,4.6447,4.6447,4.6412,4.6408,4.6397,4.6357,4.6355,4.6377,4.6375,4.6374,4.6373,0,0,0,0,0,0,0,4.6549,4.6544,4.6489,4.6497,4.6495,4.649,4.6485,4.6457,4.6436,4.6462,4.6461,4.6456,4.6411,4.64,4.6396,4.6354,4.6377,4.6375,4.6373,4.6372,4.629,4.6289,0,0,0,0,0,0,4.6555,4.6546,4.6491,4.6488,4.6523,4.6488,4.6482,4.647,4.6436,4.6431,4.6456,4.6456,4.6404,4.6399,4.6394,4.6361,4.6374,4.6372,4.637,4.629,4.629,4.6289,0,0,0,0,0,0,4.6557,4.6551,4.6493,4.6517,4.6509,4.6486,4.6473,4.6469,4.6458,4.6431,4.6427,4.6449,4.6404,4.6398,4.6369,4.6359,4.6371,4.6368,4.6291,4.629,4.6289,4.6297,0,0,0,0,0,0,4.6559,4.6551,4.6543,4.6517,4.6508,4.6471,4.6472,4.6468,4.6454,4.6454,4.6423,4.6419,4.6404,4.6373,4.6366,4.6356,4.6366,4.6292,4.6291,4.629,4.6297,4.6296,4.6295,0,0,0,0,0,4.6562,4.6545,4.6543,4.6536,4.6497,4.647,4.6465,4.6451,4.6454,4.6444,4.6427,4.642,4.6362,4.637,4.6362,4.6351,4.6292,4.6291,4.629,4.6298,4.6296,4.6295,0,0,0,0,0,0,4.6568,4.6541,4.6538,4.6513,4.6495,4.6468,4.6456,4.645,4.6428,4.6428,4.6409,4.6403,4.6375,4.636,4.637,4.6324,4.6327,4.6324,4.6335,4.6334,4.6333,4.6337,4.6364,0,0,0,0,0,4.6567,4.655,4.6526,4.6506,4.6497,4.6478,4.6466,4.6457,4.6436,4.6427,4.6408,4.6386,4.6362,4.6347,4.6324,4.6295,4.6288,4.6283,4.6282,4.6282,4.6279,4.6262,4.626,4.6285,4.6285,4.6285,0,0,4.6563,4.6547,4.6536,4.6507,4.6492,4.6472,4.6472,4.6451,4.6436,4.6423,4.6396,4.6381,4.6354,4.6326,4.6312,4.6312,4.6271,4.628,4.628,4.6278,4.6261,4.6258,4.6256,4.6284,4.6284,4.6284,0,0,4.6547,4.6534,4.6515,4.6501,4.6478,4.6466,4.6461,4.6436,4.6427,4.64,4.639,4.637,4.6331,4.6313,4.6298,4.6276,4.6269,4.6269,4.6264,4.6247,4.6246,4.6244,4.6235,4.6233,4.6267,4.6267,4.6267,0,4.6545,4.6518,4.6506,4.6487,4.6473,4.6464,4.6445,4.643,4.64,4.639,4.6392,4.6342,4.6324,4.6291,4.6286,4.6274,4.6267,4.6272,4.6247,4.6245,4.6243,4.6235,4.6232,4.6267,4.6267,4.6267,4.6267,0,4.6516,4.6497,4.6485,4.646,4.6445,4.6425,4.6409,4.6395,4.6387,4.6374,4.6346,4.6324,4.6296,4.6288,4.6279,4.6253,4.6254,4.6252,4.6253,4.6241,4.6233,4.623,4.6267,4.6267,4.6267,4.6267,0,0,4.6501,4.6471,4.6467,4.6455,4.643,4.6414,4.6393,4.6369,4.6358,4.6337,4.6318,4.6286,4.6284,4.6268,4.6257,4.6242,4.6226,4.6242,4.6241,4.6239,4.6195,4.6197,4.6194,4.6221,4.6221,4.622,4.6197,0,4.6482,4.6448,4.6437,4.6407,4.6389,4.638,4.6362,4.6344,4.6331,4.6312,4.6296,4.6274,4.6273,4.6263,4.6249,4.6231,4.6217,4.6233,4.6202,4.6201,4.6209,4.619,4.6191,4.6171,4.6194,4.6194,4.6193,0,4.6455,4.6437,4.6407,4.6385,4.6376,4.6361,4.6338,4.632,4.6299,4.629,4.6273,4.6263,4.6239,4.6243,4.6209,4.622,4.6207,4.6196,4.6195,4.6191,4.6196,4.6185,4.6164,4.6161,4.6188,4.6189,4.6189,0,4.6447,4.6415,4.6393,4.6383,4.6357,4.6346,4.6334,4.6313,4.6299,4.6278,4.6269,4.6245,4.6231,4.6211,4.6195,4.6199,4.6162,4.6165,4.6153,4.6153,4.6144,4.6145,4.6121,4.6137,4.6137,4.6137,4.6137,0,4.6426,4.6408,4.6389,4.6376,4.6354,4.6341,4.6319,4.6306,4.6288,4.627,4.626,4.6243,4.6222,4.6202,4.6188,4.6162,4.6155,4.6147,4.6143,4.6147,4.6148,4.6138,4.6138,4.6136,4.6136,4.6136,4.6136,0,4.6414,4.6401,4.6376,4.6354,4.6348,4.6333,4.6313,4.6298,4.6286,4.6263,4.6257,4.6236,4.6211,4.6193,4.616,4.6151,4.6123,4.6119,4.6131,4.6129,4.6118,4.6119,4.6086,4.6081,4.61,4.61,4.61,0,4.6401,4.6387,4.6364,4.6353,4.6342,4.6323,4.631,4.6296,4.6282,4.6257,4.6245,4.622,4.62,4.6161,4.6141,4.6116,4.6111,4.6101,4.6107,4.6112,4.6111,4.6112,4.611,4.61,4.61,4.61,4.61,0,4.638,4.6375,4.6358,4.6338,4.6323,4.6306,4.6289,4.6279,4.6262,4.6246,4.6223,4.6207,4.6176,4.6151,4.6124,4.6109,4.6101,4.6099,4.6094,4.6098,4.6106,4.6101,4.6128,4.6099,4.6099,4.6099,4.6099,4.6099,4.6367,4.6354,4.6337,4.6318,4.6304,4.6288,4.6274,4.626,4.6241,4.6216,4.6208,4.6183,4.6161,4.6125,4.611,4.6089,4.6089,4.6083,4.6081,4.608,4.608,4.611,4.6084,4.6084,4.6084,4.6084,4.6084,0,4.6345,4.6334,4.6317,4.6294,4.6279,4.6276,4.6257,4.6243,4.6223,4.6204,4.6185,4.6157,4.6133,4.6113,4.6087,4.6074,4.607,4.6068,4.6068,4.6065,4.6081,4.6088,4.6072,4.6072,4.6072,4.6072,4.6072,4.6072,4.6332,4.6311,4.6303,4.6274,4.6262,4.624,4.623,4.6214,4.62,4.6171,4.6152,4.6139,4.6119,4.6093,4.607,4.6064,4.6055,4.6054,4.6047,4.6062,4.6064,4.6065,4.6071,4.6052,4.6052,4.6032,4.6032,4.6032]}]]